contact:dominique.lefevre@mio.osupytheas.fr, maurice.libes@osupytheas.fr, didier.mallarino@osupytheas.fr
Project:EMSO http://www.emso-fr.org/EMSO-France
Depth: 2436.0 m
Title:EMSO Ligure Ouest : Data MII capteur AQUADOPP
Date,Latitude,Longitude,X_East,Y_North,Z_Up,Amplitude_X,Amplitude_Y,Amplitude_Z,Batterie,SoundSpeed,Heading,Pitch,Roll,Pressure,TIS,Speed,Direction
, degrees North, degrees East, m.s-1, m.s-1,m.s-1, 1, 1, 1, Volt, m.s-1, degree, degree, degree, dbar, degree_C, m.s-1, degree
2020-12-29T00:01:03,42.805,6.029,0.024,0.0,0.023,104.0,111.0,101.0,13.4,1505.3,327.9,-0.7,1.8,2470.261,13.32,0.024,90.0
2020-12-29T00:04:03,42.805,6.029,0.018,-0.022,-0.031,105.0,111.0,102.0,13.4,1505.3,323.3,-0.7,1.8,2470.215,13.32,0.028,140.7
2020-12-29T00:07:03,42.805,6.029,0.022,-0.005,-0.015,106.0,110.0,102.0,13.3,1505.3,325.9,-0.7,1.8,2470.224,13.32,0.022,102.8
2020-12-29T00:10:03,42.805,6.029,0.023,-0.003,0.021,106.0,109.0,101.0,13.4,1505.3,326.6,-0.7,1.8,2470.253,13.32,0.023,97.4
2020-12-29T00:13:03,42.805,6.029,0.035,-0.004,-0.015,105.0,110.0,101.0,13.3,1505.3,326.5,-0.7,1.8,2470.224,13.32,0.035,96.5
2020-12-29T00:16:03,42.805,6.029,0.019,-0.001,-0.025,104.0,112.0,102.0,13.4,1505.3,326.2,-0.8,1.9,2470.25,13.32,0.019,93.0
2020-12-29T00:19:03,42.805,6.029,0.019,-0.017,0.021,105.0,110.0,102.0,13.3,1505.3,325.2,-0.7,1.8,2470.198,13.32,0.025,131.8
2020-12-29T00:22:03,42.805,6.029,0.011,-0.01,-0.049,106.0,109.0,102.0,13.3,1505.3,326.5,-0.7,1.8,2470.247,13.32,0.014,132.3
2020-12-29T00:25:03,42.805,6.029,0.002,0.005,-0.008,105.0,108.0,102.0,13.4,1505.3,326.8,-0.7,1.8,2470.203,13.32,0.005,21.8
2020-12-29T00:28:03,42.805,6.029,0.022,-0.01,-0.002,105.0,108.0,101.0,13.4,1505.3,325.4,-0.7,1.9,2470.237,13.32,0.024,114.4
2020-12-29T00:31:03,42.805,6.029,0.002,-0.004,-0.002,104.0,110.0,103.0,13.3,1505.3,323.2,-0.7,1.9,2470.214,13.32,0.004,153.4
2020-12-29T00:34:03,42.805,6.029,0.031,-0.007,0.005,105.0,108.0,102.0,13.3,1505.3,328.2,-0.7,1.8,2470.237,13.32,0.031,102.7
2020-12-29T00:37:03,42.805,6.029,0.016,-0.013,-0.011,106.0,110.0,102.0,13.4,1505.3,326.7,-0.7,1.8,2470.23,13.32,0.02,129.1
2020-12-29T00:40:03,42.805,6.029,0.0,-0.005,-0.015,106.0,108.0,102.0,13.4,1505.3,325.2,-0.7,1.8,2470.206,13.32,0.005,180.0
2020-12-29T00:43:03,42.805,6.029,-0.007,-0.027,-0.035,105.0,109.0,102.0,13.4,1505.3,326.0,-0.7,1.8,2470.204,13.32,0.027,194.5
2020-12-29T00:46:03,42.805,6.029,0.0,-0.003,-0.008,105.0,108.0,102.0,13.4,1505.3,325.7,-0.7,1.8,2470.232,13.32,0.003,180.0
2020-12-29T00:49:03,42.805,6.029,-0.003,-0.029,-0.028,106.0,109.0,102.0,13.4,1505.3,324.3,-0.7,1.8,2470.203,13.32,0.029,185.9
2020-12-29T00:52:03,42.805,6.029,0.034,-0.005,0.033,106.0,109.0,102.0,13.3,1505.3,327.7,-0.7,1.8,2470.223,13.32,0.034,98.4
2020-12-29T00:55:03,42.805,6.029,0.0,-0.023,-0.04,105.0,109.0,102.0,13.4,1505.3,324.1,-0.7,1.9,2470.209,13.32,0.023,180.0
2020-12-29T00:58:03,42.805,6.029,0.026,-0.005,0.006,105.0,109.0,101.0,13.3,1505.3,326.1,-0.7,1.8,2470.211,13.32,0.026,100.9
2020-12-29T01:04:03,42.805,6.029,0.01,-0.021,-0.01,106.0,109.0,103.0,13.3,1505.2,326.3,-0.7,1.8,2470.236,13.3,0.023,154.5
2020-12-29T01:07:03,42.805,6.029,0.015,-0.003,-0.005,106.0,110.0,101.0,13.4,1505.3,323.5,-0.7,1.8,2470.253,13.31,0.015,101.3
2020-12-29T01:10:03,42.805,6.029,-0.002,-0.01,-0.02,105.0,110.0,102.0,13.3,1505.3,325.5,-0.7,1.8,2470.227,13.31,0.01,191.3
2020-12-29T01:13:03,42.805,6.029,-0.004,-0.01,-0.012,105.0,110.0,103.0,13.4,1505.3,328.1,-0.7,1.8,2470.253,13.32,0.01,201.8
2020-12-29T01:16:03,42.805,6.029,-0.003,-0.001,0.032,104.0,109.0,102.0,13.4,1505.3,323.1,-0.7,1.8,2470.269,13.32,0.003,251.6
2020-12-29T01:19:03,42.805,6.029,0.007,-0.011,-0.007,106.0,108.0,103.0,13.4,1505.3,327.0,-0.7,1.8,2470.233,13.32,0.013,147.5
2020-12-29T01:22:03,42.805,6.029,-0.002,-0.032,-0.01,105.0,110.0,104.0,13.3,1505.3,324.4,-0.7,1.8,2470.256,13.32,0.032,183.6
2020-12-29T01:25:03,42.805,6.029,0.017,-0.01,-0.008,105.0,110.0,102.0,13.4,1505.3,327.9,-0.7,1.8,2470.276,13.32,0.019,120.5
2020-12-29T01:28:03,42.805,6.029,0.004,0.006,-0.003,104.0,108.0,103.0,13.4,1505.3,323.5,-0.7,1.9,2470.224,13.32,0.007,33.7
2020-12-29T01:31:03,42.805,6.029,0.028,0.0,-0.037,105.0,110.0,102.0,13.3,1505.3,326.8,-0.7,1.8,2470.24,13.32,0.028,90.0
2020-12-29T01:34:03,42.805,6.029,0.015,-0.007,0.0,105.0,111.0,102.0,13.4,1505.3,324.5,-0.7,1.8,2470.198,13.32,0.016,115.0
2020-12-29T01:37:03,42.805,6.029,0.003,-0.004,0.0,104.0,111.0,102.0,13.4,1505.3,326.1,-0.7,1.8,2470.223,13.32,0.005,143.1
2020-12-29T01:40:03,42.805,6.029,0.004,-0.01,-0.021,106.0,108.0,102.0,13.4,1505.3,323.2,-0.7,1.8,2470.182,13.32,0.01,158.2
2020-12-29T01:43:03,42.805,6.029,0.015,-0.013,-0.019,104.0,110.0,103.0,13.4,1505.3,325.8,-0.7,1.8,2470.277,13.32,0.019,130.9
2020-12-29T01:46:03,42.805,6.029,0.002,-0.005,0.006,106.0,110.0,100.0,13.4,1505.3,323.3,-0.7,1.9,2470.261,13.32,0.005,158.2
2020-12-29T01:49:03,42.805,6.029,0.028,-0.008,0.024,105.0,109.0,102.0,13.4,1505.3,322.5,-0.7,1.8,2470.25,13.32,0.029,105.9
2020-12-29T01:52:03,42.805,6.029,0.037,-0.017,-0.018,105.0,109.0,101.0,13.4,1505.3,323.1,-0.7,1.9,2470.223,13.32,0.04,114.7
2020-12-29T01:55:03,42.805,6.029,0.019,-0.001,0.012,105.0,107.0,102.0,13.3,1505.3,325.1,-0.7,1.8,2470.206,13.32,0.019,93.0
2020-12-29T01:58:03,42.805,6.029,-0.038,-0.002,-0.017,107.0,110.0,100.0,13.4,1505.3,328.1,-0.7,1.8,2470.228,13.32,0.038,267.0
2020-12-29T02:04:03,42.805,6.029,0.023,-0.019,-0.009,105.0,109.0,101.0,13.4,1505.2,328.0,-0.7,1.8,2470.253,13.3,0.029,129.6
2020-12-29T02:07:03,42.805,6.029,0.024,-0.004,0.006,105.0,108.0,102.0,13.4,1505.3,325.7,-0.7,1.8,2470.22,13.31,0.024,99.5
2020-12-29T02:10:03,42.805,6.029,0.021,0.004,0.0,105.0,109.0,102.0,13.4,1505.3,327.2,-0.7,1.8,2470.252,13.31,0.021,79.2
2020-12-29T02:13:03,42.805,6.029,0.014,0.015,0.027,104.0,108.0,102.0,13.4,1505.3,324.4,-0.7,1.8,2470.242,13.32,0.02,43.0
2020-12-29T02:16:03,42.805,6.029,0.017,-0.025,-0.018,106.0,108.0,102.0,13.3,1505.3,325.0,-0.7,1.9,2470.279,13.32,0.03,145.8
2020-12-29T02:19:03,42.805,6.029,0.016,-0.014,-0.021,105.0,110.0,102.0,13.4,1505.3,324.8,-0.7,1.8,2470.236,13.32,0.021,131.2
2020-12-29T02:22:03,42.805,6.029,-0.016,-0.001,-0.023,106.0,108.0,102.0,13.4,1505.3,326.5,-0.8,1.8,2470.252,13.32,0.016,266.4
2020-12-29T02:25:03,42.805,6.029,0.02,-0.01,0.03,106.0,111.0,102.0,13.4,1505.3,325.9,-0.7,1.8,2470.256,13.32,0.022,116.6
2020-12-29T02:28:03,42.805,6.029,0.017,-0.003,0.008,105.0,111.0,102.0,13.4,1505.3,326.5,-0.7,1.8,2470.241,13.32,0.017,100.0
2020-12-29T02:31:03,42.805,6.029,0.014,-0.012,0.024,105.0,109.0,101.0,13.4,1505.3,324.7,-0.7,1.8,2470.232,13.32,0.018,130.6
2020-12-29T02:34:03,42.805,6.029,0.027,-0.025,0.009,106.0,109.0,102.0,13.4,1505.3,325.1,-0.7,1.8,2470.24,13.32,0.036,132.8
2020-12-29T02:37:03,42.805,6.029,0.03,-0.004,0.007,105.0,109.0,102.0,13.4,1505.3,327.3,-0.7,1.8,2470.254,13.32,0.03,97.6
2020-12-29T02:40:03,42.805,6.029,0.02,0.0,0.019,106.0,110.0,101.0,13.4,1505.3,328.0,-0.7,1.8,2470.273,13.32,0.02,90.0
2020-12-29T02:43:03,42.805,6.029,0.009,-0.001,0.009,106.0,108.0,101.0,13.4,1505.3,323.6,-0.7,1.8,2470.264,13.32,0.009,96.3
2020-12-29T02:46:03,42.805,6.029,0.019,0.001,0.024,104.0,110.0,102.0,13.4,1505.3,324.2,-0.7,1.8,2470.258,13.32,0.019,87.0
2020-12-29T02:52:03,42.805,6.029,0.027,-0.024,-0.005,106.0,109.0,101.0,13.4,1505.2,323.5,-0.7,1.8,2470.344,13.3,0.036,131.6
2020-12-29T02:55:03,42.805,6.029,0.024,0.008,0.024,105.0,109.0,102.0,13.4,1505.3,322.6,-0.7,1.8,2470.262,13.31,0.025,71.6
2020-12-29T02:58:03,42.805,6.029,0.011,-0.035,0.014,105.0,109.0,102.0,13.4,1505.3,326.9,-0.7,1.8,2470.299,13.31,0.036,162.6
2020-12-29T03:04:03,42.805,6.029,0.008,-0.005,0.014,105.0,110.0,102.0,13.4,1505.2,323.8,-0.7,1.8,2470.301,13.3,0.009,122.0
2020-12-29T03:07:03,42.805,6.029,-0.003,-0.006,-0.007,105.0,109.0,102.0,13.4,1505.3,325.9,-0.7,1.8,2470.298,13.31,0.006,206.6
2020-12-29T03:10:03,42.805,6.029,0.026,-0.024,-0.003,106.0,109.0,100.0,13.4,1505.3,328.2,-0.7,1.8,2470.297,13.31,0.035,132.7
2020-12-29T03:13:03,42.805,6.029,0.011,-0.002,0.002,106.0,109.0,102.0,13.3,1505.3,323.0,-0.7,1.8,2470.292,13.32,0.011,100.3
2020-12-29T03:16:03,42.805,6.029,-0.003,0.001,-0.009,105.0,109.0,102.0,13.4,1505.3,324.2,-0.7,1.8,2470.33,13.32,0.003,288.4
2020-12-29T03:19:03,42.805,6.029,0.023,-0.02,0.046,106.0,108.0,101.0,13.4,1505.3,325.4,-0.7,1.9,2470.301,13.32,0.03,131.0
2020-12-29T03:22:03,42.805,6.029,0.002,-0.012,-0.001,104.0,109.0,102.0,13.4,1505.3,327.4,-0.7,1.8,2470.302,13.32,0.012,170.5
2020-12-29T03:25:03,42.805,6.029,0.029,-0.007,0.035,107.0,109.0,101.0,13.4,1505.3,322.7,-0.7,1.8,2470.33,13.32,0.029,103.6
2020-12-29T03:28:03,42.805,6.029,-0.009,-0.019,0.003,106.0,107.0,103.0,13.4,1505.3,325.0,-0.7,1.8,2470.318,13.32,0.021,205.3
2020-12-29T03:31:03,42.805,6.029,0.022,0.016,0.022,104.0,109.0,104.0,13.4,1505.3,322.6,-0.7,1.8,2470.295,13.32,0.027,54.0
2020-12-29T03:34:03,42.805,6.029,0.0,0.004,-0.01,106.0,109.0,104.0,13.4,1505.3,324.9,-0.7,1.8,2470.34,13.32,0.004,0.0
2020-12-29T03:37:03,42.805,6.029,0.016,-0.004,0.008,106.0,107.0,103.0,13.4,1505.3,323.6,-0.7,1.8,2470.289,13.32,0.016,104.0
2020-12-29T03:40:03,42.805,6.029,0.008,-0.003,-0.01,106.0,110.0,103.0,13.3,1505.3,323.6,-0.7,1.8,2470.356,13.32,0.008,110.6
2020-12-29T03:43:03,42.805,6.029,0.0,0.003,-0.004,106.0,111.0,103.0,13.4,1505.3,325.0,-0.7,1.8,2470.315,13.32,0.003,0.0
2020-12-29T03:46:03,42.805,6.029,0.009,-0.003,-0.011,106.0,110.0,101.0,13.3,1505.3,326.2,-0.7,1.8,2470.283,13.32,0.009,108.4
2020-12-29T03:49:03,42.805,6.029,0.001,0.008,-0.017,105.0,109.0,103.0,13.4,1505.3,325.8,-0.7,1.8,2470.294,13.32,0.008,7.1
2020-12-29T03:52:03,42.805,6.029,0.01,-0.004,0.011,105.0,110.0,102.0,13.4,1505.3,324.2,-0.7,1.8,2470.321,13.32,0.01,111.8
2020-12-29T03:55:03,42.805,6.029,0.023,-0.007,0.004,105.0,109.0,101.0,13.3,1505.3,326.6,-0.7,1.8,2470.302,13.32,0.024,106.9
2020-12-29T03:58:03,42.805,6.029,0.0,-0.011,0.009,105.0,110.0,101.0,13.3,1505.3,327.8,-0.7,1.8,2470.336,13.32,0.011,180.0
2020-12-29T04:04:03,42.805,6.029,0.023,0.004,-0.011,107.0,110.0,101.0,13.4,1505.2,327.7,-0.8,1.8,2470.368,13.3,0.023,80.1
2020-12-29T04:07:03,42.805,6.029,0.038,-0.006,0.0,105.0,111.0,102.0,13.4,1505.3,326.9,-0.8,1.9,2470.373,13.31,0.038,99.0
2020-12-29T04:10:03,42.805,6.029,-0.002,0.002,-0.011,106.0,111.0,102.0,13.3,1505.3,324.4,-0.7,1.8,2470.355,13.31,0.002,315.0
2020-12-29T04:13:03,42.805,6.029,0.007,0.0,0.0,104.0,110.0,102.0,13.4,1505.3,327.7,-0.8,1.8,2470.382,13.32,0.007,90.0
2020-12-29T04:16:03,42.805,6.029,0.014,-0.016,-0.028,104.0,110.0,103.0,13.4,1505.3,322.6,-0.7,1.8,2470.333,13.32,0.021,138.8
2020-12-29T04:19:03,42.805,6.029,0.039,-0.005,0.041,105.0,109.0,102.0,13.3,1505.3,324.7,-0.7,1.8,2470.387,13.32,0.039,97.3
2020-12-29T04:22:03,42.805,6.029,-0.011,0.001,-0.015,105.0,111.0,102.0,13.4,1505.3,323.9,-0.7,1.8,2470.385,13.32,0.011,275.2
2020-12-29T04:25:03,42.805,6.029,0.026,-0.003,0.043,105.0,110.0,102.0,13.4,1505.3,327.9,-0.6,1.8,2470.354,13.32,0.026,96.6
2020-12-29T04:28:03,42.805,6.029,0.013,-0.007,0.01,105.0,110.0,102.0,13.4,1505.3,323.5,-0.7,1.8,2470.364,13.32,0.014,118.3
2020-12-29T04:31:03,42.805,6.029,0.005,-0.003,-0.023,105.0,111.0,103.0,13.4,1505.3,323.5,-0.7,1.8,2470.413,13.32,0.005,121.0
2020-12-29T04:34:03,42.805,6.029,0.024,-0.017,0.002,104.0,111.0,102.0,13.4,1505.3,325.7,-0.7,1.8,2470.358,13.32,0.029,125.3
2020-12-29T04:37:03,42.805,6.029,0.019,-0.006,0.01,104.0,111.0,102.0,13.3,1505.3,325.0,-0.7,1.8,2470.398,13.32,0.019,107.5
2020-12-29T04:40:03,42.805,6.029,0.008,-0.004,0.0,104.0,110.0,102.0,13.4,1505.3,324.2,-0.7,1.8,2470.368,13.32,0.008,116.6
2020-12-29T04:43:03,42.805,6.029,0.019,0.007,-0.006,106.0,113.0,103.0,13.4,1505.3,326.9,-0.7,1.8,2470.366,13.32,0.02,69.8
2020-12-29T04:46:03,42.805,6.029,0.023,0.01,0.018,106.0,111.0,101.0,13.4,1505.3,327.1,-0.7,1.8,2470.374,13.32,0.025,66.5
2020-12-29T04:49:03,42.805,6.029,0.0,-0.019,-0.015,106.0,110.0,101.0,13.3,1505.3,326.4,-0.7,1.9,2470.374,13.32,0.019,180.0
2020-12-29T04:52:03,42.805,6.029,0.02,-0.007,0.037,105.0,111.0,101.0,13.3,1505.3,322.9,-0.7,1.8,2470.411,13.32,0.021,109.3
2020-12-29T04:55:03,42.805,6.029,0.01,0.004,-0.025,104.0,110.0,101.0,13.3,1505.3,323.2,-0.7,1.8,2470.381,13.32,0.01,68.2
2020-12-29T04:58:03,42.805,6.029,0.009,-0.002,0.031,106.0,111.0,101.0,13.4,1505.3,328.0,-0.7,1.8,2470.385,13.32,0.009,102.5
2020-12-29T05:04:03,42.805,6.029,0.03,-0.008,0.005,105.0,113.0,101.0,13.3,1505.2,326.0,-0.7,1.8,2470.437,13.3,0.031,104.9
2020-12-29T05:07:03,42.805,6.029,0.028,-0.012,0.017,105.0,112.0,102.0,13.4,1505.3,324.1,-0.7,1.8,2470.403,13.31,0.03,113.2
2020-12-29T05:10:03,42.805,6.029,0.027,0.004,0.02,105.0,112.0,102.0,13.4,1505.3,326.8,-0.7,1.8,2470.435,13.31,0.027,81.6
2020-12-29T05:13:03,42.805,6.029,0.0,0.0,0.016,105.0,112.0,102.0,13.4,1505.3,323.2,-0.7,1.8,2470.444,13.32,0.0,0.0
2020-12-29T05:16:03,42.805,6.029,0.011,-0.006,0.009,105.0,114.0,102.0,13.4,1505.3,326.2,-0.7,1.8,2470.433,13.32,0.012,118.6
2020-12-29T05:19:03,42.805,6.029,0.02,-0.022,-0.006,104.0,113.0,101.0,13.4,1505.3,327.4,-0.7,1.8,2470.429,13.32,0.029,137.7
2020-12-29T05:22:03,42.805,6.029,0.03,0.004,-0.023,104.0,111.0,102.0,13.4,1505.3,326.5,-0.7,1.8,2470.407,13.32,0.03,82.4
2020-12-29T05:25:03,42.805,6.029,0.012,0.002,-0.018,104.0,110.0,102.0,13.4,1505.3,325.4,-0.7,1.8,2470.436,13.32,0.012,80.5
2020-12-29T05:28:03,42.805,6.029,0.028,0.009,0.036,104.0,111.0,102.0,13.4,1505.3,323.4,-0.7,1.9,2470.424,13.32,0.029,72.2
2020-12-29T05:31:03,42.805,6.029,-0.015,-0.002,-0.005,106.0,112.0,102.0,13.4,1505.3,325.0,-0.6,1.8,2470.433,13.32,0.015,262.4
2020-12-29T05:34:03,42.805,6.029,-0.012,0.008,-0.001,105.0,112.0,101.0,13.4,1505.3,324.4,-0.7,1.8,2470.427,13.32,0.014,303.7
2020-12-29T05:37:03,42.805,6.029,0.001,-0.003,-0.002,106.0,113.0,102.0,13.4,1505.3,326.0,-0.7,1.8,2470.447,13.32,0.003,161.6
2020-12-29T05:40:03,42.805,6.029,-0.002,0.008,0.0,103.0,112.0,102.0,13.4,1505.3,322.7,-0.7,1.8,2470.452,13.32,0.008,346.0
2020-12-29T05:43:03,42.805,6.029,0.009,0.012,-0.008,104.0,113.0,102.0,13.3,1505.3,326.5,-0.7,1.8,2470.462,13.32,0.015,36.9
2020-12-29T05:46:03,42.805,6.029,0.002,0.005,0.0,105.0,113.0,102.0,13.3,1505.3,325.3,-0.7,1.8,2470.403,13.32,0.005,21.8
2020-12-29T05:49:03,42.805,6.029,0.035,-0.004,0.006,105.0,112.0,102.0,13.3,1505.3,327.9,-0.7,1.8,2470.43,13.32,0.035,96.5
2020-12-29T05:52:03,42.805,6.029,0.013,0.009,0.028,103.0,112.0,103.0,13.4,1505.3,323.5,-0.7,1.8,2470.455,13.32,0.015,55.3
2020-12-29T05:55:03,42.805,6.029,0.01,-0.014,0.014,104.0,112.0,102.0,13.3,1505.3,326.5,-0.7,1.8,2470.452,13.32,0.017,144.5
2020-12-29T05:58:03,42.805,6.029,0.026,0.003,0.021,104.0,111.0,102.0,13.3,1505.3,324.9,-0.7,1.8,2470.429,13.32,0.026,83.4
2020-12-29T06:04:03,42.805,6.029,0.022,0.002,0.043,104.0,112.0,102.0,13.4,1505.2,325.1,-0.8,1.8,2470.487,13.3,0.022,84.8
2020-12-29T06:07:03,42.805,6.029,0.007,0.001,0.006,105.0,114.0,102.0,13.3,1505.3,325.6,-0.7,1.8,2470.465,13.31,0.007,81.9
2020-12-29T06:10:03,42.805,6.029,0.004,-0.001,-0.03,104.0,112.0,101.0,13.3,1505.3,324.7,-0.7,1.8,2470.49,13.31,0.004,104.0
2020-12-29T06:13:03,42.805,6.029,-0.008,0.0,-0.044,106.0,113.0,102.0,13.4,1505.3,326.1,-0.7,1.8,2470.466,13.32,0.008,270.0
2020-12-29T06:16:03,42.805,6.029,-0.012,-0.001,-0.004,106.0,112.0,102.0,13.3,1505.3,325.1,-0.7,1.8,2470.465,13.32,0.012,265.2
2020-12-29T06:19:03,42.805,6.029,0.034,0.004,0.007,104.0,112.0,101.0,13.4,1505.3,324.5,-0.7,1.8,2470.491,13.32,0.034,83.3
2020-12-29T06:22:03,42.805,6.029,0.022,0.014,0.032,103.0,112.0,103.0,13.4,1505.3,325.3,-0.7,1.8,2470.487,13.32,0.026,57.5
2020-12-29T06:25:03,42.805,6.029,0.023,0.01,0.032,104.0,113.0,102.0,13.4,1505.3,323.5,-0.7,1.8,2470.489,13.32,0.025,66.5
2020-12-29T06:28:03,42.805,6.029,0.0,0.009,-0.025,103.0,111.0,103.0,13.4,1505.3,324.3,-0.7,1.8,2470.494,13.32,0.009,0.0
2020-12-29T06:31:03,42.805,6.029,0.016,-0.012,0.032,104.0,112.0,103.0,13.4,1505.3,326.3,-0.7,1.8,2470.46,13.32,0.02,126.9
2020-12-29T06:34:03,42.805,6.029,0.028,0.009,-0.023,105.0,114.0,103.0,13.3,1505.3,327.2,-0.7,1.8,2470.464,13.32,0.029,72.2
2020-12-29T06:37:03,42.805,6.029,-0.005,-0.003,-0.015,105.0,112.0,104.0,13.3,1505.3,325.9,-0.7,1.8,2470.464,13.32,0.005,239.0
2020-12-29T06:40:03,42.805,6.029,0.006,0.011,0.01,105.0,112.0,103.0,13.4,1505.3,327.6,-0.7,1.8,2470.462,13.32,0.012,28.6
2020-12-29T06:43:03,42.805,6.029,0.0,0.013,0.0,105.0,114.0,103.0,13.4,1505.3,327.6,-0.7,1.8,2470.428,13.32,0.013,0.0
2020-12-29T06:46:03,42.805,6.029,0.003,-0.008,-0.008,105.0,113.0,101.0,13.3,1505.3,326.2,-0.7,1.8,2470.452,13.32,0.008,159.4
2020-12-29T06:49:03,42.805,6.029,0.052,-0.004,0.011,105.0,115.0,102.0,13.4,1505.3,324.2,-0.7,1.8,2470.464,13.32,0.052,94.4
2020-12-29T06:52:03,42.805,6.029,-0.011,-0.002,0.006,104.0,113.0,102.0,13.3,1505.3,326.0,-0.7,1.8,2470.496,13.32,0.011,259.7
2020-12-29T06:55:03,42.805,6.029,0.012,-0.008,-0.008,104.0,114.0,101.0,13.4,1505.3,323.3,-0.7,1.9,2470.526,13.32,0.014,123.7
2020-12-29T06:58:03,42.805,6.029,0.025,-0.005,0.043,104.0,112.0,103.0,13.3,1505.3,322.7,-0.7,1.8,2470.492,13.32,0.025,101.3
2020-12-29T07:04:03,42.805,6.029,0.036,-0.016,0.012,104.0,113.0,102.0,13.4,1505.2,323.0,-0.8,1.8,2470.504,13.3,0.039,114.0
2020-12-29T07:07:03,42.805,6.029,0.023,0.004,0.007,105.0,111.0,102.0,13.4,1505.3,325.2,-0.7,1.8,2470.489,13.31,0.023,80.1
2020-12-29T07:10:03,42.805,6.029,0.018,-0.008,-0.004,104.0,113.0,102.0,13.4,1505.3,327.5,-0.7,1.8,2470.491,13.31,0.019,114.0
2020-12-29T07:13:03,42.805,6.029,0.039,-0.006,-0.004,105.0,113.0,102.0,13.3,1505.3,326.5,-0.7,1.8,2470.478,13.32,0.039,98.7
2020-12-29T07:16:03,42.805,6.029,0.01,0.001,-0.003,104.0,111.0,102.0,13.3,1505.3,327.5,-0.7,1.8,2470.475,13.32,0.01,84.3
2020-12-29T07:19:03,42.805,6.029,0.024,-0.001,0.048,105.0,113.0,102.0,13.3,1505.3,323.7,-0.7,1.8,2470.512,13.32,0.024,92.4
2020-12-29T07:22:03,42.805,6.029,0.015,-0.011,-0.031,104.0,113.0,101.0,13.4,1505.3,326.1,-0.7,1.9,2470.52,13.32,0.018,126.3
2020-12-29T07:25:03,42.805,6.029,0.033,0.016,0.009,106.0,113.0,102.0,13.4,1505.3,324.9,-0.7,1.8,2470.495,13.32,0.036,64.1
2020-12-29T07:28:03,42.805,6.029,0.007,0.013,0.004,105.0,112.0,102.0,13.4,1505.3,328.3,-0.7,1.9,2470.504,13.32,0.014,28.3
2020-12-29T07:31:03,42.805,6.029,0.005,0.005,0.012,104.0,113.0,102.0,13.4,1505.3,325.6,-0.7,1.8,2470.499,13.32,0.007,45.0
2020-12-29T07:34:03,42.805,6.029,0.027,-0.017,0.005,105.0,112.0,102.0,13.4,1505.3,327.7,-0.7,1.8,2470.472,13.32,0.031,122.2
2020-12-29T07:37:03,42.805,6.029,0.028,0.011,0.006,105.0,113.0,101.0,13.4,1505.3,323.5,-0.7,1.8,2470.477,13.32,0.03,68.6
2020-12-29T07:40:03,42.805,6.029,0.024,-0.001,0.003,105.0,114.0,101.0,13.4,1505.3,326.9,-0.7,1.8,2470.462,13.32,0.024,92.4
2020-12-29T07:43:03,42.805,6.029,0.021,-0.008,-0.003,105.0,112.0,102.0,13.4,1505.3,324.8,-0.7,1.8,2470.492,13.32,0.022,110.9
2020-12-29T07:46:03,42.805,6.029,0.008,0.0,-0.004,105.0,112.0,101.0,13.3,1505.3,327.5,-0.7,1.8,2470.479,13.32,0.008,90.0
2020-12-29T07:49:03,42.805,6.029,-0.007,0.012,0.019,104.0,113.0,103.0,13.4,1505.3,323.2,-0.7,1.8,2470.513,13.32,0.013,329.7
2020-12-29T07:52:03,42.805,6.029,0.009,-0.011,0.019,106.0,113.0,102.0,13.4,1505.3,323.8,-0.7,1.8,2470.488,13.32,0.014,140.7
2020-12-29T07:55:03,42.805,6.029,0.047,0.01,0.037,106.0,113.0,103.0,13.3,1505.3,325.2,-0.7,1.8,2470.502,13.32,0.048,78.0
2020-12-29T07:58:03,42.805,6.029,0.01,-0.01,-0.029,104.0,113.0,102.0,13.4,1505.3,325.4,-0.7,1.8,2470.501,13.32,0.014,135.0
2020-12-29T08:04:03,42.805,6.029,0.005,0.014,0.013,105.0,113.0,103.0,13.4,1505.2,328.2,-0.7,1.8,2470.503,13.3,0.014,19.6
2020-12-29T08:07:03,42.805,6.029,0.031,-0.009,0.025,106.0,114.0,101.0,13.4,1505.3,325.1,-0.8,1.8,2470.467,13.31,0.032,106.2
2020-12-29T08:10:03,42.805,6.029,0.006,-0.012,-0.021,105.0,114.0,103.0,13.3,1505.3,323.7,-0.7,1.8,2470.472,13.31,0.013,153.4
2020-12-29T08:13:03,42.805,6.029,0.014,0.014,0.06,105.0,113.0,101.0,13.4,1505.3,322.6,-0.7,1.8,2470.523,13.32,0.019,45.0
2020-12-29T08:16:03,42.805,6.029,0.013,0.004,0.009,104.0,113.0,102.0,13.4,1505.3,325.5,-0.7,1.8,2470.49,13.32,0.013,72.9
2020-12-29T08:19:03,42.805,6.029,0.015,-0.02,-0.017,105.0,113.0,102.0,13.3,1505.3,327.6,-0.7,1.8,2470.443,13.32,0.025,143.1
2020-12-29T08:22:03,42.805,6.029,0.007,-0.011,0.026,105.0,112.0,102.0,13.4,1505.3,324.1,-0.7,1.9,2470.437,13.32,0.013,147.5
2020-12-29T08:25:03,42.805,6.029,0.033,-0.001,-0.027,104.0,113.0,102.0,13.4,1505.3,323.2,-0.7,1.8,2470.486,13.32,0.033,91.7
2020-12-29T08:28:03,42.805,6.029,0.008,-0.01,-0.035,106.0,112.0,101.0,13.4,1505.3,325.0,-0.8,1.9,2470.462,13.32,0.012,141.3
2020-12-29T08:31:03,42.805,6.029,0.005,-0.009,-0.025,105.0,111.0,103.0,13.3,1505.3,324.0,-0.7,1.8,2470.493,13.32,0.01,150.9
2020-12-29T08:34:03,42.805,6.029,0.007,-0.013,-0.009,104.0,115.0,103.0,13.3,1505.3,326.0,-0.7,1.8,2470.476,13.32,0.014,151.7
2020-12-29T08:37:03,42.805,6.029,0.007,0.008,-0.003,106.0,114.0,101.0,13.4,1505.3,325.3,-0.7,1.8,2470.494,13.32,0.01,41.2
2020-12-29T08:40:03,42.805,6.029,0.017,-0.002,-0.019,105.0,115.0,101.0,13.4,1505.3,327.4,-0.7,1.8,2470.479,13.32,0.017,96.7
2020-12-29T08:43:03,42.805,6.029,0.013,0.008,0.022,105.0,112.0,102.0,13.4,1505.3,323.5,-0.7,1.8,2470.467,13.32,0.015,58.4
2020-12-29T08:46:03,42.805,6.029,0.025,-0.014,-0.004,105.0,114.0,102.0,13.3,1505.3,324.1,-0.7,1.8,2470.455,13.32,0.028,119.3
2020-12-29T08:49:03,42.805,6.029,0.008,0.005,-0.016,105.0,114.0,102.0,13.4,1505.3,326.9,-0.7,1.8,2470.504,13.32,0.009,58.0
2020-12-29T08:52:03,42.805,6.029,0.02,-0.007,-0.027,105.0,112.0,102.0,13.4,1505.3,324.8,-0.7,1.8,2470.47,13.32,0.021,109.3
2020-12-29T08:55:03,42.805,6.029,0.026,-0.009,0.012,105.0,113.0,102.0,13.4,1505.3,326.4,-0.7,1.8,2470.48,13.32,0.027,109.1
2020-12-29T08:58:03,42.805,6.029,0.015,0.011,-0.031,106.0,116.0,102.0,13.4,1505.3,327.2,-0.7,1.8,2470.463,13.32,0.018,53.7
2020-12-29T09:04:03,42.805,6.029,0.023,0.0,-0.01,105.0,114.0,103.0,13.4,1505.2,327.8,-0.7,1.8,2470.499,13.3,0.023,90.0
2020-12-29T09:07:03,42.805,6.029,-0.01,-0.015,-0.031,104.0,115.0,104.0,13.4,1505.3,324.0,-0.7,1.8,2470.503,13.31,0.018,213.7
2020-12-29T09:10:03,42.805,6.029,0.02,-0.002,-0.006,106.0,114.0,102.0,13.4,1505.3,326.0,-0.7,1.8,2470.44,13.31,0.02,95.7
2020-12-29T09:13:03,42.805,6.029,0.027,-0.025,-0.01,104.0,113.0,101.0,13.4,1505.3,324.3,-0.7,1.8,2470.522,13.32,0.036,132.8
2020-12-29T09:16:03,42.805,6.029,0.029,-0.02,-0.024,104.0,115.0,102.0,13.3,1505.3,328.2,-0.7,1.8,2470.456,13.32,0.035,124.6
2020-12-29T09:19:03,42.805,6.029,0.024,-0.017,-0.001,105.0,113.0,102.0,13.3,1505.3,323.8,-0.7,1.8,2470.477,13.32,0.029,125.3
2020-12-29T09:22:03,42.805,6.029,0.02,0.001,-0.007,106.0,120.0,102.0,13.4,1505.3,326.3,-0.7,1.8,2470.442,13.32,0.02,87.1
2020-12-29T09:25:03,42.805,6.029,0.044,0.01,-0.021,104.0,115.0,102.0,13.4,1505.3,327.2,-0.7,1.8,2470.46,13.32,0.045,77.2
2020-12-29T09:28:03,42.805,6.029,0.032,0.003,-0.005,105.0,115.0,101.0,13.4,1505.3,327.4,-0.7,1.8,2470.422,13.32,0.032,84.6
2020-12-29T09:31:03,42.805,6.029,0.036,0.017,0.01,104.0,112.0,102.0,13.3,1505.3,324.1,-0.7,1.8,2470.43,13.32,0.039,64.7
2020-12-29T09:34:03,42.805,6.029,0.063,0.011,-0.006,104.0,113.0,102.0,13.4,1505.3,325.5,-0.7,1.8,2470.43,13.32,0.063,80.1
2020-12-29T09:37:03,42.805,6.029,0.009,0.006,-0.027,104.0,113.0,102.0,13.4,1505.3,325.4,-0.7,1.8,2470.503,13.32,0.01,56.3
2020-12-29T09:40:03,42.805,6.029,0.019,0.013,0.0,105.0,112.0,102.0,13.4,1505.3,325.0,-0.7,1.8,2470.444,13.32,0.023,55.6
2020-12-29T09:43:03,42.805,6.029,0.026,0.01,-0.011,105.0,110.0,101.0,13.4,1505.3,324.5,-0.7,1.8,2470.453,13.32,0.027,69.0
2020-12-29T09:46:03,42.805,6.029,0.046,-0.015,-0.022,104.0,113.0,102.0,13.4,1505.3,328.1,-0.7,1.8,2470.397,13.32,0.048,108.1
2020-12-29T09:49:03,42.805,6.029,0.039,-0.006,-0.013,104.0,113.0,101.0,13.4,1505.3,327.8,-0.7,1.8,2470.419,13.32,0.039,98.7
2020-12-29T09:52:03,42.805,6.029,0.02,0.002,0.001,105.0,111.0,101.0,13.4,1505.3,327.6,-0.7,1.8,2470.401,13.32,0.02,84.3
2020-12-29T09:55:03,42.805,6.029,0.029,-0.003,0.014,104.0,110.0,102.0,13.4,1505.3,325.3,-0.7,1.8,2470.46,13.32,0.029,95.9
2020-12-29T09:58:03,42.805,6.029,0.053,0.005,-0.022,105.0,111.0,102.0,13.4,1505.3,324.8,-0.7,1.8,2470.477,13.32,0.053,84.6
2020-12-29T10:04:03,42.805,6.029,0.022,-0.015,-0.012,105.0,109.0,102.0,13.4,1505.2,327.9,-0.7,1.9,2470.455,13.3,0.026,124.3